STARLINK-1172 (45074 NORAD) Tracking and Keplerian Element Data

This shows tracking and keplerian element data for the satellite.

Feedback or suggestion? Click here.




ElementValue
Catalog45074
NameSTARLINK-1172
Epoch Orbit953
Epoch Day87.91667824
Epoch Year2020
RAAN306.4233
Inclination53.0004
Eccentricity0.0006981
Argument of Perigee312.3923
Mean Anonmoly48.1847
Mean Motion15.62768374
Decay Rate-5.34E-06
L11 45074U 20006AG 20087.91667824 -.00000534 00000-0 87795-7 0 9994
L22 45074 53.0004 306.4233 0006981 312.3923 48.1847 15.62768374 9530

Live tracking and technical data element details for STARLINK-1172 (NORAD 45074). STARLINK-1172 can be tracked NOW for your location showing map with azimuth and elevation plus other details from your city location.

Track the satellite on the map from your city or location and see movement details for azimuth, elevation, latitude, longitude, range, height, and movement on the map or in text.







IsCatalogInMostPopularTable: catalog: 45074, numindb: 13
Update: records affected: 1



GetName: 45074 STARLINK-1172

Hit Count: updated at: Sat, 28 Mar 2020 21:37:22 GMT